Location: Eckley
(40.9930°N, 75.8630°W)
Time: 23:01:07
(UTC-04:00)

Daily predictions for brighter satellites

Satellite Brightness Start Highest point End
(mag) Time Altitude Azimuth Time Altitude Azimuth Time Altitude Azimuth
Ariane Rocket 3.5 18:33:45 10° S 18:38:49 70° WSW 18:43:56 10° NNW
SL-08 R/B 4.5 18:33:26 10° S 18:39:31 66° E 18:45:35 10° NNE
Cosmos 1842 Rocket 3.7 18:36:56 10° S 18:41:18 54° E 18:45:39 10° NNE
Cosmos 921 Rocket 3.6 18:37:28 10° N 18:41:34 35° ENE 18:45:36 10° SE
COSMOS 2428 3.6 18:38:12 10° N 18:43:07 29° NE 18:48:01 10° ESE
CZ-4 R/B 1.5 18:39:18 10° SSE 18:43:30 88° E 18:47:41 10° NNW
Cosmos 44 Rocket 4.2 18:39:55 10° S 18:43:52 27° ESE 18:47:49 10° NE
Cosmos 2322 Rocket 3.2 18:39:47 10° NNW 18:45:14 52° WSW 18:50:39 10° S
Cosmos 2333 Rocket 3.7 18:42:03 10° N 18:45:53 18° NE 18:49:42 10° E
Cosmos 1833 4.2 18:42:02 10° SSW 18:47:43 77° ESE 18:53:22 10° NNE
IRS-1A Rocket 4.4 18:43:18 10° SSE 18:49:09 87° ENE 18:55:06 10° NNW
Cosmos 2219 4.2 18:45:10 10° SSE 18:49:53 27° ESE 18:54:36 10° NE
CZ-4C R/B 3.0 18:45:56 10° SSE 18:50:13 27° ESE 18:54:55 10° NE
Cosmos 1500 Rocket 3.5 18:49:28 10° N 18:53:46 63° E 18:58:03 10° SSE
Cosmos 2056 Rocket 4.5 18:49:26 10° NNW 18:54:36 53° WSW 18:59:38 10° S
Abrixas 3.6 18:55:36 10° S 18:57:09 17° SE 18:58:09 13° ESE
FENGYUN 3A 4.1 18:53:38 10° SE 18:58:34 38° ENE 19:03:33 10° N
SPOT 3 Rocket 3.6 18:58:35 10° SSE 19:03:41 61° ENE 19:08:49 10° N
BREEZE-M R/B 4.3 19:08:01 10° SE 19:09:00 12° SE 19:09:00 12° SE
EO 1 Del DPAF 3.3 19:06:10 10° N 19:10:02 81° WNW 19:13:52 10° SSW
Cosmos 2366 rocket 4.4 19:04:32 10° SSW 19:10:42 66° W 19:16:52 10° N
Cosmos 2322 3.7 19:05:58 10° NNW 19:11:44 83° ENE 19:17:26 10° SSE
Cosmos 1452 Rocket 3.5 19:06:57 10° NNW 19:12:14 88° ENE 19:17:30 10° SSE
Cosmos 1315 Rocket 2.8 19:09:12 10° N 19:13:17 71° ENE 19:17:23 10° SSE
Meteor 2-1 Rocket 4.4 19:09:09 10° S 19:14:57 88° W 19:20:54 10° N
ERS-2 3.8 19:12:09 10° S 19:15:37 38° W 19:19:07 10° NNW
Cosmos 2098 Rocket 3.7 19:14:15 10° SSE 19:18:29 44° E 19:23:51 10° NNE
Aureole 2 Rocket 3.7 19:15:27 10° N 19:18:49 27° ENE 19:20:31 20° ESE
COSMO-SKYMED 1 2.6 19:14:44 10° N 19:19:05 84° WNW 19:23:26 10° SSW
Sich 1 4.0 19:17:16 10° NNE 19:20:59 26° ENE 19:23:42 15° ESE
Cosmos 2219 Rocket 2.7 19:19:13 10° N 19:24:25 37° ENE 19:28:19 16° ESE
ALOS 2.2 19:19:56 10° SSE 19:24:32 66° ENE 19:29:12 10° N
Cosmos 1726 2.4 19:23:43 10° SSE 19:27:13 42° E 19:30:44 10° NNE
Iridium 4 Rocket 3.7 19:23:08 10° SSE 19:28:37 66° E 19:34:27 10° N
Cosmos 1805 Rocket 3.6 19:28:15 10° N 19:32:34 53° E 19:36:52 10° SSE
SJ-6B 3.5 19:35:41 29° ENE 19:35:41 29° ENE 19:38:44 10° N
RESURS DK-1 4.0 19:35:06 10° NW 19:38:53 35° WSW 19:42:39 10° S
NOAA 12 4.2 19:35:27 10° SSE 19:40:45 82° WSW 19:46:07 10° NNW
Cosmos 1666 Rocket 3.8 19:37:28 10° N 19:41:37 42° ENE 19:43:27 27° SE
BREEZE-M DEB (TANK) 4.2 19:24:29 10° WNW 19:45:19 62° NNE 19:48:19 29° E
SAR-Lupe-3 4.4 19:42:47 10° NNE 19:46:23 83° ESE 19:49:57 10° SSW
Cosmos 1000 Rocket 4.4 19:40:22 10° N 19:46:37 87° E 19:52:47 10° S
DELTA 2 R/B (1) 4.2 19:41:27 10° W 19:46:50 50° SSW 19:50:05 23° SE
Cosmos 1821 Rocket 3.9 19:40:50 10° S 19:46:59 79° E 19:53:16 10° N
Cosmos 2333 4.2 19:41:47 10° NNW 19:47:33 86° ENE 19:53:18 10° SSE
Cosmos 1633 Rocket 3.4 19:43:57 10° N 19:48:09 41° ENE 19:48:39 39° E
Atlas Centaur 2 3.9 19:45:23 10° SW 19:48:36 18° S 19:51:47 12° SSE
Cosmos 1934 Rocket 4.0 19:42:42 10° S 19:48:57 62° E 19:55:14 10° NNE
Cosmos 1048 Rocket 4.0 19:44:03 10° SSW 19:49:11 78° WNW 19:54:20 10° NNE
BREEZE-M DEB (TANK) 4.3 19:46:39 10° WNW 19:51:29 90° N 20:11:28 12° SE
Gbstr 26 Del rocket 3.6 19:46:35 10° NW 19:51:41 70° NE 19:54:24 33° ESE
Cosmos 2239 Rocket 4.4 19:47:28 10° S 19:53:36 89° E 19:59:47 10° N
Abrixas rocket 4.0 19:52:40 10° NW 19:55:19 22° N 19:55:19 22° N
APEX 4.1 19:52:44 10° SW 19:55:40 35° WNW 19:57:10 20° N
Cosmos 44 3.5 19:52:39 10° SW 19:56:56 57° NW 20:00:11 17° NNE
Envisat 4.2 19:58:34 25° NE 19:58:34 25° NE 20:01:29 10° N
H-2A R/B 2.6 19:55:43 29° SSE 19:57:37 76° ENE 20:01:33 10° N
In-Cosmos 22 Rocket 4.3 19:52:28 10° N 19:58:05 53° ENE 20:01:27 24° SE
Cosmos 2237 Rocket 2.7 19:53:20 10° N 19:58:39 38° ENE 19:59:13 37° ENE
CSL-04 DEB 4.5 20:04:33 57° NE 20:04:33 57° NE 20:08:09 10° N
Cosmos 2227 Rocket 2.7 20:00:28 10° S 20:04:49 38° SE 20:04:49 38° SE
Thor Agena Rocket 3.5 20:00:47 10° NNE 20:05:54 81° WNW 20:10:56 10° SSW
BREEZE-M DEB (TANK) 3.5 20:06:14 10° W 20:07:22 23° NW 20:07:22 23° NW
SL-16 R/B 3.7 20:05:19 10° N 20:08:15 20° NNE 20:08:15 20° NNE
Delta 2 Rocket 4.4 20:08:21 10° WSW 20:11:17 29° SSW 20:11:17 29° SSW
Cosmos 2221 4.3 20:08:34 10° SW 20:12:27 32° WNW 20:16:23 10° NNW
Meteor 2-3 Rocket 4.5 20:11:13 10° N 20:15:18 36° NE 20:15:18 36° NE
Cosmos 2123 Rocket 3.9 20:10:56 10° N 20:17:12 86° E 20:23:29 10° S
Cosmos 1300 3.1 20:14:40 10° SSW 20:18:27 63° W 20:20:01 33° NNW
Cosmos 1605 Rocket 3.8 20:15:15 10° S 20:21:21 76° E 20:27:26 10° N
Cosmos 1980 3.6 20:17:00 10° NNW 20:22:38 63° ENE 20:22:47 63° ENE
Cosmos 2084 4.3 20:20:12 10° NNW 20:22:36 37° NNW 20:22:36 37° NNW
Cosmos 1331 Rocket 3.8 20:20:30 10° NNW 20:25:41 76° ENE 20:25:41 76° ENE
COSMOS 2428 3.8 20:22:10 10° NW 20:27:30 42° WSW 20:32:48 10° S
USA 267 3.2 20:28:51 56° ESE 20:29:34 59° SE 20:35:59 10° SSW
Cosmos 2333 Rocket 2.2 20:25:04 10° NNW 20:30:49 78° WSW 20:32:29 48° S
Cosmos 2219 4.3 20:28:18 10° SW 20:33:46 44° WNW 20:39:15 10° NNE
Meteor 2-2 Rocket 4.3 20:32:14 10° SSW 20:37:56 76° W 20:43:37 10° N
CZ-4C R/B 3.1 20:33:20 10° WSW 20:38:21 44° NW 20:41:54 21° NNE
Cosmos 2297 Rocket 3.6 20:37:37 10° SSW 20:39:56 26° S 20:39:56 26° S
Resurs 01 Rocket 3.6 20:47:33 21° NNW 20:47:33 21° NNW 20:49:03 10° NNW
NOSS 0 Rocket 4.3 20:47:27 10° NNW 20:53:32 60° WSW 20:54:41 51° SSW
Cosmos 1447 Rocket 4.5 20:49:30 10° N 20:55:24 78° NNW 20:55:24 78° NNW
USA 234 4.1 21:05:13 37° NNE 21:05:13 37° NNE 21:10:24 10° NW
Cosmos 2219 Rocket 3.8 21:03:22 10° NW 21:08:13 31° WSW 21:10:07 25° SW
Cosmos 2237 Rocket 4.0 21:37:38 10° NW 21:41:05 27° WNW 21:41:05 27° WNW
Cosmos 2227 Rocket 4.4 21:44:56 10° WSW 21:46:46 19° WSW 21:46:46 19° WSW
SL-16 R/B 4.4 21:48:35 10° NNW 21:50:09 19° NW 21:50:09 19° NW
